Weather History for PASX - February, 2014

Change the Weather History Date:

Saturday, February 1, 2014

  Actual Average Record
Temperature  
Mean Temperature 19 °F -  
Max Temperature 28 °F 24 °F 51 °F (2007)
Min Temperature 10 °F 6 °F -32 °F (1993)
Degree Days  
Heating Degree Days 46    
Moisture  
Dew Point 13 °F    
Average Humidity 83    
Maximum Humidity 93    
Minimum Humidity 59    
Precipitation  
Precipitation 0.00 in - - ()
Sea Level Pressure  
Sea Level Pressure 30.36 in    
Wind  
Wind Speed 3 mph (East)    
Max Wind Speed 7 mph    
Max Gust Speed -    
Visibility 10 miles    
Events      
Averages and records for this station are not official NWS values.
T = Trace of Precipitation, MM = Missing Value Source: NWS Daily Summary

Daily Weather History Graph

Daily Weather History Graph

Search for Another Location

Airport or City:

Trip Planner

Search our weather history database for the weather conditions in past years. The results will help you decide how hot, cold, wet, or windy it might be!

Date:

Astronomy

Feb. 01, 2014 Rise Set
Actual Time 9:19 AM AKST 5:16 PM AKST
Civil Twilight 8:31 AM AKST 6:04 PM AKST
Nautical Twilight 7:40 AM AKST 6:56 PM AKST
Astronomical Twilight 6:51 AM AKST 7:45 PM AKST
Moon 9:26 AM AKST (2/1) 9:01 PM AKST (2/1)
Length of Visible Light 9h 33m
Length of Day
7h 56m
Waxing Crescent, 6% of the Moon is Illuminated
Feb 1
Waxing Crescent
Feb 6
First Quarter
Feb 14
Full
Feb 22
Last Quarter
Feb 28
New

Hourly Weather History & Observations

Time (AKST) Temp. Windchill Dew Point Humidity Pressure Visibility Wind Dir Wind Speed Gust Speed Precip Events Conditions
12:16 AM 15.8 °F 8.6 °F 10.4 °F 79% 30.30 in 10.0 mi East 4.6 mph - N/A   Clear
12:36 AM 15.8 °F 7.2 °F 10.4 °F 79% 30.30 in 10.0 mi East 5.8 mph - N/A   Clear
12:56 AM 15.8 °F 7.2 °F 12.2 °F 86% 30.30 in 10.0 mi East 5.8 mph - N/A   Clear
1:16 AM 15.8 °F 7.2 °F 12.2 °F 86% 30.31 in 10.0 mi East 5.8 mph - N/A   Clear
1:36 AM 15.8 °F 10.2 °F 12.2 °F 86% 30.31 in 10.0 mi ENE 3.5 mph - N/A   Clear
1:56 AM 15.8 °F - 12.2 °F 86% 30.32 in 10.0 mi Calm Calm - N/A   Clear
2:16 AM 15.8 °F - 10.4 °F 79% 30.32 in 10.0 mi Calm Calm - N/A   Clear
2:36 AM 14.0 °F - 10.4 °F 86% 30.32 in 10.0 mi Calm Calm - N/A   Clear
2:56 AM 14.0 °F - 12.2 °F 93% 30.33 in 10.0 mi Calm Calm - N/A   Clear
3:16 AM 15.8 °F - 12.2 °F 86% 30.33 in 10.0 mi Calm Calm - N/A   Clear
3:36 AM 15.8 °F 8.6 °F 12.2 °F 86% 30.33 in 10.0 mi East 4.6 mph - N/A   Clear
3:56 AM 15.8 °F - 12.2 °F 86% 30.33 in 10.0 mi Calm Calm - N/A   Clear
4:16 AM 15.8 °F 6.1 °F 12.2 °F 86% 30.33 in 10.0 mi East 6.9 mph - N/A   Clear
4:36 AM 15.8 °F 6.1 °F 12.2 °F 86% 30.33 in 10.0 mi East 6.9 mph - N/A   Clear
4:56 AM 15.8 °F 8.6 °F 10.4 °F 79% 30.32 in 10.0 mi East 4.6 mph - N/A   Clear
5:16 AM 15.8 °F 7.2 °F 12.2 °F 86% 30.32 in 10.0 mi East 5.8 mph - N/A   Clear
5:36 AM 14.0 °F 6.5 °F 10.4 °F 86% 30.32 in 10.0 mi East 4.6 mph - N/A   Clear
5:56 AM 12.2 °F 4.3 °F 10.4 °F 92% 30.32 in 10.0 mi East 4.6 mph - N/A   Clear
6:16 AM 12.2 °F 4.3 °F 10.4 °F 92% 30.32 in 10.0 mi East 4.6 mph - N/A   Clear
6:36 AM 12.2 °F 4.3 °F 8.6 °F 85% 30.32 in 10.0 mi East 4.6 mph - N/A   Clear
6:56 AM 12.2 °F - 8.6 °F 85% 30.34 in 10.0 mi Calm Calm - N/A   Clear
7:16 AM 12.2 °F - 8.6 °F 85% 30.34 in 10.0 mi Calm Calm - N/A   Clear
7:36 AM 10.4 °F - 8.6 °F 92% 30.34 in 10.0 mi Calm Calm - N/A   Clear
7:56 AM 10.4 °F - 8.6 °F 92% 30.34 in 10.0 mi Calm Calm - N/A   Clear
8:16 AM 10.4 °F 4.0 °F 6.8 °F 85% 30.35 in 10.0 mi ENE 3.5 mph - N/A   Clear
8:36 AM 10.4 °F 0.8 °F 6.8 °F 85% 30.34 in 10.0 mi East 5.8 mph - N/A   Clear
8:56 AM 10.4 °F 0.8 °F 8.6 °F 92% 30.35 in 10.0 mi East 5.8 mph - N/A   Clear
9:16 AM 12.2 °F 1.7 °F 8.6 °F 85% 30.35 in 10.0 mi East 6.9 mph - N/A   Clear
9:36 AM 12.2 °F 2.9 °F 8.6 °F 85% 30.35 in 10.0 mi East 5.8 mph - N/A   Clear
9:56 AM 12.2 °F 4.3 °F 8.6 °F 85% 30.35 in 10.0 mi East 4.6 mph - N/A   Clear
10:16 AM 12.2 °F 4.3 °F 8.6 °F 85% 30.36 in 10.0 mi East 4.6 mph - N/A   Clear
10:36 AM 12.2 °F 4.3 °F 10.4 °F 92% 30.37 in 10.0 mi East 4.6 mph - N/A   Clear
10:56 AM 14.0 °F 8.2 °F 10.4 °F 86% 30.37 in 10.0 mi East 3.5 mph - N/A   Clear
11:16 AM 15.8 °F 8.6 °F 12.2 °F 86% 30.37 in 10.0 mi East 4.6 mph - N/A   Clear
11:36 AM 15.8 °F 10.2 °F 12.2 °F 86% 30.37 in 10.0 mi NE 3.5 mph - N/A   Clear
11:56 AM 17.6 °F - 14.0 °F 86% 30.37 in 10.0 mi Calm Calm - N/A   Clear
12:16 PM 19.4 °F 14.3 °F 17.6 °F 93% 30.38 in 10.0 mi East 3.5 mph - N/A   Clear
12:36 PM 19.4 °F 14.3 °F 17.6 °F 93% 30.37 in 10.0 mi East 3.5 mph - N/A   Clear
12:56 PM 21.2 °F 16.4 °F 17.6 °F 86% 30.37 in 10.0 mi ESE 3.5 mph - N/A   Clear
1:16 PM 23.0 °F 17.0 °F 19.4 °F 86% 30.38 in 10.0 mi ESE 4.6 mph - N/A   Clear
1:36 PM 24.8 °F 20.5 °F 19.4 °F 80% 30.38 in 10.0 mi ESE 3.5 mph - N/A   Clear
1:56 PM 24.8 °F 20.5 °F 19.4 °F 80% 30.37 in 10.0 mi ESE 3.5 mph - N/A   Clear
2:16 PM 26.6 °F - 19.4 °F 74% 30.38 in 10.0 mi Calm Calm - N/A   Clear
2:36 PM 26.6 °F - 17.6 °F 69% 30.38 in 10.0 mi Calm Calm - N/A   Clear
2:56 PM 26.6 °F - 19.4 °F 74% 30.37 in 10.0 mi Calm Calm - N/A   Clear
3:16 PM 26.6 °F - 17.6 °F 69% 30.37 in 10.0 mi Calm Calm - N/A   Clear
3:36 PM 28.4 °F 24.6 °F 15.8 °F 59% 30.37 in 10.0 mi North 3.5 mph - N/A   Clear
3:56 PM 26.6 °F 21.2 °F 14.0 °F 59% 30.37 in 10.0 mi NNE 4.6 mph - N/A   Clear
4:16 PM 26.6 °F 21.2 °F 14.0 °F 59% 30.37 in 10.0 mi ENE 4.6 mph - N/A   Clear
4:36 PM 26.6 °F 21.2 °F 15.8 °F 64% 30.37 in 10.0 mi NE 4.6 mph - N/A   Clear
4:56 PM 26.6 °F 22.6 °F 15.8 °F 64% 30.37 in 10.0 mi NE 3.5 mph - N/A   Clear
5:16 PM 23.0 °F 17.0 °F 15.8 °F 74% 30.37 in 10.0 mi East 4.6 mph - N/A   Clear
5:36 PM 21.2 °F 16.4 °F 15.8 °F 80% 30.37 in 10.0 mi SE 3.5 mph - N/A   Clear
5:56 PM 21.2 °F - 15.8 °F 80% 30.37 in 10.0 mi Calm Calm - N/A   Clear
6:16 PM 23.0 °F - 17.6 °F 80% 30.38 in 10.0 mi Calm Calm - N/A   Clear
6:36 PM 21.2 °F - 15.8 °F 80% 30.38 in 10.0 mi Calm Calm - N/A   Clear
6:56 PM 19.4 °F - 15.8 °F 86% 30.38 in 10.0 mi Calm Calm - N/A   Clear
7:16 PM 19.4 °F - 15.8 °F 86% 30.38 in 10.0 mi Calm Calm - N/A   Clear
7:36 PM 19.4 °F - 14.0 °F 80% 30.38 in 10.0 mi Calm Calm - N/A   Clear
7:56 PM 17.6 °F - 14.0 °F 86% 30.39 in 10.0 mi Calm Calm - N/A   Clear
8:16 PM 17.6 °F - 12.2 °F 79% 30.39 in 10.0 mi Calm Calm - N/A   Clear
8:36 PM 17.6 °F 12.3 °F 14.0 °F 86% 30.39 in 10.0 mi East 3.5 mph - N/A   Clear
8:56 PM 19.4 °F 12.8 °F 15.8 °F 86% 30.39 in 10.0 mi East 4.6 mph - N/A   Clear
9:16 PM 19.4 °F 12.8 °F 15.8 °F 86% 30.39 in 10.0 mi East 4.6 mph - N/A   Clear
9:36 PM 19.4 °F 12.8 °F 15.8 °F 86% 30.39 in 10.0 mi East 4.6 mph - N/A   Clear
9:56 PM 19.4 °F 14.3 °F 15.8 °F 86% 30.39 in 10.0 mi East 3.5 mph - N/A   Clear
10:16 PM 17.6 °F 12.3 °F 15.8 °F 93% 30.40 in 10.0 mi East 3.5 mph - N/A   Clear
10:36 PM 19.4 °F 14.3 °F 15.8 °F 86% 30.40 in 10.0 mi East 3.5 mph - N/A   Clear
10:56 PM 17.6 °F 10.7 °F 14.0 °F 86% 30.39 in 10.0 mi East 4.6 mph - N/A   Clear
11:16 PM 19.4 °F 12.8 °F 15.8 °F 86% 30.39 in 10.0 mi ESE 4.6 mph - N/A   Clear
11:36 PM 17.6 °F 12.3 °F 15.8 °F 93% 30.40 in 10.0 mi East 3.5 mph - N/A   Clear
11:56 PM 17.6 °F - 14.0 °F 86% 30.40 in 10.0 mi Calm Calm - N/A   Clear